Theta_e
282 282 282 282 282 283 283 285 289 290 290 292 293 293 294 294 295 295 295 294 294 293 292 293 302 304 304 303 302 301 301 303 304 303 303 303 303 302
281 281 282 282 282 282 282 282 283 287 287 288 288 289 288 289 291 292 294 295 295 294 293 292 292 300 301 300 300 300 300 302 303 302 302 302 302 301
281 280 280 280 280 281 281 281 281 283 285 285 285 285 285 286 286 286 290 292 293 294 294 293 291 293 297 298 297 297 299 300 302 301 301 301 300 300
279 279 278 279 279 279 280 280 281 281 282 283 284 284 285 285 285 286 286 289 291 292 293 294 293 292 295 295 295 295 296 298 300 300 300 300 299 299
277 277 277 278 278 278 278 279 280 280 281 282 283 284 284 285 285 286 286 286 287 291 291 292 293 291 293 296 295 295 294 294 297 298 299 299 299 299
275 275 275 276 276 277 277 278 279 280 281 281 282 282 283 284 285 286 286 286 287 287 289 291 291 292 291 293 295 295 294 293 293 296 297 298 297 297
273 273 273 274 274 275 276 276 277 278 279 279 280 281 282 283 284 285 286 286 286 287 288 289 289 290 290 290 294 295 294 293 292 294 295 296 296 296
272 271 271 271 272 272 273 274 275 276 277 278 279 281 282 283 283 284 285 286 286 287 287 287 288 288 289 290 291 293 294 293 292 293 294 295 295 295
270 270 270 270 270 270 270 271 272 272 274 275 275 276 277 278 280 282 285 285 286 286 287 286 287 288 288 288 289 290 292 293 293 292 293 294 294 294
269 269 269 269 269 270 271 271 272 272 273 273 273 274 274 275 275 276 278 281 284 285 286 286 287 286 287 288 287 288 290 292 292 292 291 293 293 293
269 269 269 269 269 271 272 273 273 273 273 273 274 274 275 276 277 278 279 279 281 283 284 286 286 287 287 287 288 287 288 290 291 292 292 292 292 292
269 269 270 271 272 273 273 273 273 273 273 273 273 273 273 274 274 275 275 277 279 280 285 285 285 286 285 286 286 286 286 288 290 291 292 292 292 291
271 271 271 272 272 273 274 274 274 274 275 275 274 274 274 274 274 274 274 275 277 278 280 285 286 286 285 285 284 284 285 286 288 289 291 292 291 291
272 272 272 273 274 276 276 276 277 277 276 275 274 274 274 273 273 273 274 274 276 278 279 280 286 286 285 285 284 284 283 284 286 288 289 291 291 291
272 273 274 274 274 275 274 274 274 274 274 275 274 274 274 273 273 273 272 272 273 274 276 281 282 285 285 285 285 284 281 282 283 286 288 289 290 290
272 273 273 271 270 270 269 270 270 270 271 272 272 273 273 274 273 273 272 272 272 273 274 278 282 285 285 285 285 284 283 283 282 284 286 288 289 290
272 269 267 266 266 266 267 267 267 268 269 270 271 271 272 272 272 272 272 272 272 273 274 277 283 283 285 286 285 284 282 283 284 284 285 286 287 288
267 264 263 263 264 264 265 265 266 267 268 269 270 271 271 272 272 272 272 272 272 273 275 277 284 285 285 286 286 285 283 283 283 284 285 286 286 287
263 262 261 262 262 263 263 264 265 266 267 269 271 272 272 272 272 273 274 274 274 276 277 277 283 285 285 284 284 285 284 282 283 283 284 285 285 285
261 261 261 261 262 262 263 263 264 265 266 268 271 272 272 272 273 274 275 279 277 277 279 282 283 284 284 282 282 282 284 283 282 282 283 284 284 284
261 261 261 262 262 262 263 263 264 265 266 268 269 272 273 273 274 276 278 280 281 281 283 280 282 284 283 283 280 277 281 282 282 282 282 282 280 278
261 261 261 262 262 262 263 263 264 266 267 267 268 269 271 273 275 278 279 280 282 283 282 280 280 281 280 281 279 274 278 280 280 280 281 281 279 277
261 261 262 262 262 262 263 264 265 266 267 267 268 268 269 271 272 275 278 280 281 281 279 277 278 279 279 279 276 276 277 278 278 278 277 279 277 277
Wind_Speed
23 22 22 22 21 20 19 18 10 6 10 8 16 20 23 28 30 31 32 33 32 30 34 37 34 33 35 31 28 27 26 26 25 24 23 21 20 20
27 27 27 27 28 26 24 23 22 17 8 23 28 29 34 33 33 34 36 37 39 36 32 36 41 38 35 36 33 29 28 28 28 26 25 24 23 22
32 31 33 31 31 30 32 31 30 24 18 28 34 38 40 37 35 33 33 36 38 39 39 37 37 43 43 42 38 33 31 30 30 28 27 26 25 24
33 34 32 29 30 28 29 30 28 27 26 25 28 34 36 39 37 34 34 33 36 37 37 38 39 38 44 45 44 40 35 33 33 32 29 28 27 25
27 26 28 28 27 26 26 27 27 28 27 27 27 27 34 34 37 38 37 36 35 37 39 39 40 37 40 44 45 44 41 39 37 37 35 32 29 27
27 24 24 25 26 28 27 27 26 26 25 27 27 26 26 28 32 31 31 31 35 34 36 40 40 41 40 44 45 44 45 43 42 42 40 37 35 31
27 25 24 24 27 30 32 32 30 29 27 26 27 25 25 22 23 24 30 27 32 33 36 38 37 39 43 42 45 46 46 46 45 45 43 42 42 39
28 27 26 26 25 26 28 30 32 34 31 27 27 25 28 26 25 25 27 23 14 23 28 36 33 41 41 42 44 45 47 48 47 47 47 47 46 45
26 27 28 25 25 26 28 28 28 28 31 34 35 34 32 30 28 28 26 26 31 31 26 26 28 37 36 38 40 45 49 48 49 49 47 46 47 46
25 26 27 28 26 27 29 30 29 28 27 29 32 35 35 34 33 34 38 36 35 33 31 27 27 34 32 37 37 38 44 47 49 50 50 48 48 46
26 26 27 29 28 28 31 31 29 30 29 32 35 38 40 39 39 35 31 29 29 35 35 34 36 32 28 35 39 38 42 45 47 49 50 50 49 47
27 27 26 28 30 30 33 32 32 33 31 33 36 38 38 38 33 33 35 31 29 28 31 31 33 26 12 31 34 38 36 41 44 47 48 48 48 44
27 28 30 32 33 33 33 36 37 39 38 39 38 35 33 33 31 30 33 35 35 36 39 35 28 30 30 14 15 29 33 34 38 41 46 48 48 49
31 32 34 35 36 39 39 37 41 41 36 33 33 33 31 32 33 34 36 37 41 43 41 48 33 30 29 23 16 19 29 31 33 37 39 43 48 51
31 34 38 38 37 32 30 37 40 34 32 30 31 33 33 35 36 36 37 38 43 45 44 46 49 30 33 29 24 17 14 26 32 33 35 36 43 46
33 31 26 29 34 31 31 28 26 27 28 30 33 34 34 32 29 30 32 33 35 40 44 44 47 42 38 30 26 19 25 17 28 33 35 35 36 44
34 31 33 30 25 25 26 26 27 28 28 29 29 31 31 30 32 31 31 31 30 31 35 40 47 45 39 35 27 29 26 27 28 31 32 32 35 41
27 25 23 22 22 24 26 28 29 28 29 30 31 29 29 28 30 32 32 31 28 30 29 36 29 31 33 31 42 29 27 29 28 29 31 29 28 36
23 23 20 22 24 26 26 27 29 31 32 32 28 27 28 30 30 31 31 29 26 28 30 36 29 25 11 11 17 34 25 26 26 26 30 30 26 29
20 21 22 23 25 25 27 28 30 31 30 31 30 27 27 27 28 28 29 24 25 27 27 25 25 23 15 12 9 21 36 27 28 27 26 25 24 25
25 24 23 25 26 27 28 29 29 30 31 30 28 27 27 26 26 27 26 26 20 21 12 15 29 35 29 17 7 4 24 30 30 28 23 22 16 15
23 24 26 27 27 28 29 29 30 30 30 28 28 28 27 26 23 24 23 20 19 17 11 17 13 15 13 12 4 7 13 21 20 19 25 26 16 7
26 27 29 30 30 29 29 29 28 29 29 29 29 29 28 27 26 23 21 20 18 8 7 8 12 13 10 7 9 9 12 15 15 16 11 13 12 9
Wind_Direction
339 335 328 323 318 314 310 305 277 303 304 302 298 299 295 295 292 288 288 291 294 285 265 253 246 244 247 248 248 247 242 237 234 233 229 227 227 227
335 328 322 320 315 313 309 304 297 272 279 297 294 293 297 299 296 291 285 281 282 287 284 262 255 245 244 250 248 243 239 236 233 231 229 225 223 224
328 326 321 320 315 313 310 305 300 291 271 284 289 294 296 295 296 297 292 285 280 278 280 280 264 253 249 248 248 244 236 233 231 230 228 226 224 222
323 320 315 315 311 308 304 300 296 291 280 281 283 289 289 295 294 292 291 288 282 278 275 275 275 261 248 247 247 245 239 229 227 228 226 225 224 223
311 307 306 307 303 300 297 292 289 287 283 281 282 282 286 289 290 290 288 286 281 278 275 271 270 267 248 244 243 242 241 234 225 225 224 225 223 222
307 303 299 295 294 295 294 290 289 286 285 283 285 284 279 282 282 282 282 279 280 281 277 273 269 266 263 244 241 239 240 239 232 225 223 223 222 221
307 305 301 296 292 290 290 290 288 286 283 281 282 282 278 274 270 280 277 284 277 275 274 272 269 263 258 249 238 238 237 239 237 227 225 223 223 221
305 305 302 301 298 294 290 287 284 288 288 287 285 279 278 280 279 273 275 277 281 280 260 260 261 259 255 249 246 233 234 234 237 231 227 224 224 224
301 301 300 299 297 295 292 290 286 282 278 281 281 278 285 282 293 297 273 264 265 270 269 265 257 259 260 252 245 239 231 230 230 230 228 224 224 224
298 296 296 295 294 295 292 287 283 279 277 274 271 275 275 278 273 273 279 289 283 275 259 263 260 253 254 260 251 237 233 229 227 225 228 222 222 223
299 295 291 291 294 295 288 285 285 283 280 279 278 278 278 280 279 285 275 267 270 266 253 251 257 259 250 252 256 247 236 230 228 226 224 220 218 219
297 294 295 297 297 296 292 288 284 281 279 275 271 270 269 270 272 270 273 274 275 272 260 238 247 246 251 248 246 246 236 229 228 227 225 223 215 211
296 299 295 296 298 295 291 284 278 281 277 274 271 269 266 264 263 263 261 262 265 264 262 252 243 233 235 250 235 230 228 226 221 226 226 224 218 211
300 298 295 295 293 293 294 293 294 295 292 285 281 275 271 267 268 265 262 265 266 262 267 260 245 230 223 234 237 233 225 223 220 220 220 221 217 216
302 300 303 303 302 303 300 298 299 295 289 279 272 272 273 274 274 272 268 268 268 268 270 254 250 246 224 218 224 213 184 214 217 219 219 217 210 210
303 304 312 312 306 303 304 305 300 297 294 286 283 282 282 279 273 267 268 269 268 266 263 264 244 240 236 230 221 217 206 194 208 213 218 221 212 208
323 324 319 322 319 316 313 310 308 305 299 293 289 282 277 275 272 270 266 267 264 267 269 268 231 230 237 222 223 218 204 209 219 209 207 216 213 207
325 328 321 319 316 314 313 312 310 307 300 295 286 278 271 271 271 271 264 256 256 258 259 266 207 220 228 229 222 219 211 212 210 204 205 210 213 209
338 327 314 314 313 313 311 310 307 307 307 303 287 279 274 271 270 272 272 260 248 259 254 256 235 214 222 222 218 218 210 203 203 201 205 207 216 212
336 322 315 314 313 311 311 310 310 313 312 311 307 284 276 273 276 276 276 282 236 242 244 229 199 206 212 215 205 215 214 200 192 198 203 209 217 213
331 324 319 317 314 313 313 312 311 311 312 312 314 315 292 279 277 279 285 299 254 241 253 195 201 212 215 212 190 173 204 212 210 203 201 193 178 168
333 325 325 323 320 318 317 316 314 318 320 318 318 318 317 314 307 298 282 284 298 243 202 215 210 202 194 193 175 158 180 197 206 205 208 200 178 184
337 336 333 333 329 323 321 320 317 315 320 319 319 318 319 317 315 310 308 296 282 275 167 148 170 187 195 187 146 148 155 162 158 131 121 204 202 201